Wind_Speed
37 39 41 43 43 43 42 40 40 41 40 39 40 41 44 44 39 35 35 37 37 31 29 43 60 60 59 61 60 61 64 62 60 60 60 62 62 61 63 65 62 59 58 57 56 54 52 51 51 52 53 52 51 50 49 49 47 45 41 34 31 34 35 36 39 41 39 38 38 36 34 33 33 33 32 31 29 28 27 26 25 25 26 26 26
39 39 39 40 40 40 40 41 41 41 41 40 41 41 43 45 42 36 34 36 37 33 28 36 55 62 57 60 62 61 64 63 61 61 61 62 64 63 63 63 62 62 60 57 56 55 52 51 52 52 53 52 50 50 50 49 48 46 44 40 34 34 35 36 39 41 40 40 39 36 35 34 33 33 33 31 30 29 28 28 27 27 27 26 27
45 41 38 38 38 37 36 37 40 42 43 41 40 41 42 45 43 38 34 34 36 37 30 29 45 62 59 58 62 61 62 64 61 61 61 61 64 64 61 60 59 61 62 59 56 56 55 54 53 53 54 53 51 50 48 48 48 45 44 42 37 34 35 37 39 41 41 40 38 37 37 37 34 33 33 32 31 30 29 29 28 27 27 27 27
44 40 37 35 36 37 35 35 37 40 44 44 40 40 42 44 43 40 35 32 33 37 35 27 34 56 63 59 62 62 60 63 62 60 62 63 63 62 60 60 60 60 62 60 57 58 58 57 56 55 55 53 51 49 47 47 47 45 44 43 38 34 36 39 40 40 41 39 38 38 38 38 36 34 34 33 32 31 30 30 29 29 28 27 26
38 36 38 37 34 34 34 36 35 35 39 43 42 41 41 43 43 40 36 32 31 34 38 32 29 46 64 61 63 65 61 61 62 61 63 64 63 63 61 62 63 61 62 61 59 60 60 59 58 57 56 55 52 50 48 48 48 46 45 45 41 36 37 41 42 41 40 39 37 37 38 38 37 36 35 35 35 34 32 31 31 31 30 29 28
37 34 37 39 37 35 33 35 36 34 35 39 42 41 40 42 43 40 37 33 30 32 38 37 30 39 62 65 62 66 63 61 62 61 63 64 63 63 61 63 65 64 63 62 59 60 62 61 59 59 58 56 54 52 51 50 51 49 47 47 44 39 39 42 44 43 41 38 36 36 38 39 38 37 38 38 38 38 37 35 34 32 31 31 30
39 37 38 38 37 37 36 34 35 36 35 37 39 40 39 40 42 40 38 34 30 30 34 39 32 35 57 67 63 65 64 61 61 61 63 64 65 64 63 64 67 66 65 64 61 60 62 61 59 59 58 57 56 54 54 55 55 54 51 49 47 43 41 43 44 44 42 39 36 35 37 38 39 39 39 40 39 39 39 39 37 35 34 33 33
38 39 42 44 43 41 39 37 34 33 33 34 35 34 34 37 40 40 38 35 31 29 30 36 34 33 50 67 65 64 65 62 62 62 63 65 65 66 65 65 66 67 66 64 62 61 61 60 59 58 57 56 56 56 56 57 58 57 54 52 50 46 44 45 46 45 44 42 39 37 36 38 40 41 41 43 42 41 40 40 40 39 37 36 35
38 39 43 47 49 46 43 42 40 37 34 32 31 30 30 33 37 39 38 36 33 29 28 31 34 34 45 63 65 63 64 62 62 62 62 65 66 66 67 67 67 67 66 64 63 62 62 62 61 60 57 55 55 56 57 59 60 61 59 56 54 50 47 46 47 47 47 45 42 39 39 40 43 44 45 45 45 44 43 41 40 39 38 38 37
40 41 42 44 46 49 50 46 43 44 44 41 37 33 30 32 35 38 37 36 34 30 28 29 33 34 43 60 64 63 65 62 60 60 60 63 65 65 68 69 69 67 65 64 64 63 63 63 62 62 60 57 56 56 57 59 61 62 62 60 58 56 52 49 48 49 49 48 45 43 43 43 44 44 44 43 44 45 46 46 43 41 39 38 38
43 44 44 42 42 46 50 47 43 44 48 50 47 40 35 34 36 38 38 37 35 31 30 28 31 34 42 59 64 62 65 61 58 58 57 59 62 62 64 66 67 66 63 62 64 65 64 63 62 62 61 59 58 56 56 58 60 61 61 61 61 60 57 54 52 51 50 50 49 47 45 44 43 43 43 44 46 48 48 47 46 44 43 43 42
46 46 45 45 45 47 48 46 44 44 46 51 52 47 41 40 39 39 39 37 35 32 31 30 30 33 43 60 65 63 64 60 55 56 55 56 57 57 59 60 62 64 63 61 63 65 66 65 63 63 62 59 57 56 56 57 58 59 60 60 60 60 59 59 56 55 54 52 51 49 47 45 44 45 46 46 47 48 48 48 47 47 46 46 45
48 49 48 47 48 49 47 44 44 45 45 47 51 50 46 44 42 42 40 37 36 33 33 31 29 32 43 60 66 63 63 59 54 53 54 56 56 54 56 58 59 61 62 63 63 63 64 65 64 63 63 60 58 56 56 56 57 58 58 58 58 58 58 58 57 56 56 54 53 52 49 48 47 47 46 46 46 49 50 50 49 49 48 47 46
49 50 49 48 48 47 46 45 45 44 43 42 45 48 49 45 43 43 41 38 36 34 34 32 28 32 43 60 64 59 59 58 54 52 52 54 55 53 53 55 56 57 58 62 64 63 63 63 61 61 62 61 59 58 57 57 56 57 57 57 57 57 58 58 57 55 53 53 52 51 51 51 50 48 46 47 48 50 51 52 52 52 50 48 47
49 48 48 48 47 45 43 43 42 39 38 36 36 41 46 45 43 44 42 38 36 35 35 32 28 30 42 58 60 54 54 53 50 49 48 49 52 53 52 52 54 54 55 60 64 65 64 62 59 58 58 59 59 58 57 57 56 55 57 57 56 55 56 57 57 56 54 53 52 50 50 51 49 47 47 49 50 50 50 51 53 53 51 48 47
49 48 46 45 44 42 41 40 38 36 35 33 30 32 38 41 42 42 39 36 36 35 34 29 27 29 39 54 56 51 51 51 48 47 44 44 48 52 52 51 52 53 53 56 60 64 66 63 59 58 58 59 59 58 57 56 55 55 56 56 56 55 55 55 54 55 54 52 51 50 50 50 49 48 48 49 50 50 50 51 52 52 51 49 47
48 45 43 41 40 40 39 38 36 34 34 33 29 26 28 32 34 33 32 34 35 34 31 26 26 29 38 51 53 51 52 50 48 47 44 44 46 48 50 51 52 54 54 54 57 61 65 66 64 61 60 60 58 57 57 57 56 57 56 55 56 56 55 54 53 52 52 50 49 49 49 48 48 48 47 47 48 50 52 54 54 53 53 52 50
48 45 45 43 39 38 38 38 36 34 33 32 28 23 23 24 24 25 28 32 34 31 27 24 26 29 39 49 52 53 53 50 48 46 44 43 43 45 48 51 54 55 55 55 56 56 58 62 66 66 63 61 58 57 59 59 57 57 56 55 56 56 56 55 53 52 51 50 50 50 50 49 48 48 47 46 46 48 51 53 53 54 55 55 54
50 49 48 45 40 37 37 37 36 32 31 31 27 22 21 20 19 23 27 30 31 28 23 23 26 29 37 46 48 50 52 50 48 46 44 42 41 42 45 50 54 56 57 56 56 55 54 57 64 67 64 61 59 58 59 59 57 56 55 55 57 57 56 55 53 52 52 53 53 52 51 50 49 49 47 46 46 47 48 50 52 54 56 56 55
51 49 47 44 40 36 35 35 34 31 30 30 24 19 19 19 20 24 27 28 28 26 21 23 28 30 35 40 42 44 46 47 46 46 45 44 43 43 45 49 52 54 55 54 54 55 56 57 61 66 65 62 60 60 60 59 57 55 55 56 57 55 52 52 53 54 54 54 54 54 53 51 50 50 48 48 49 49 48 50 53 54 54 55 55
50 49 47 43 39 35 31 30 30 28 27 27 22 18 17 19 23 26 26 26 26 23 20 23 27 30 34 37 39 42 44 45 46 46 47 46 45 46 49 51 52 53 53 52 52 54 57 58 61 64 65 64 62 61 61 61 61 58 57 56 54 50 48 50 53 55 55 55 55 55 54 53 52 51 51 51 51 51 50 51 53 54 54 54 54
50 49 47 42 38 33 27 23 23 23 24 24 21 18 17 20 24 25 24 25 24 21 19 23 26 30 34 37 39 42 45 46 47 46 46 47 48 49 51 53 54 53 52 51 52 54 56 57 59 61 63 64 63 61 60 61 63 63 61 57 53 49 48 49 52 56 58 58 58 57 56 55 54 53 54 54 52 50 50 51 52 53 54 54 53
49 47 45 40 36 29 21 18 18 17 20 22 21 19 20 22 23 21 21 23 23 20 18 22 26 29 34 38 42 44 45 48 49 47 45 47 49 50 51 53 56 56 54 51 51 54 56 56 55 55 58 61 62 62 61 61 61 63 63 60 55 52 52 52 53 57 61 61 60 60 58 56 56 56 57 56 54 51 50 51 52 54 54 55 54
46 45 43 39 33 25 16 14 15 14 14 16 19 20 21 22 21 19 19 20 21 20 18 22 27 30 33 38 43 45 45 47 50 48 46 47 49 49 48 51 54 56 56 52 50 51 56 57 54 51 52 55 57 58 60 61 60 59 59 58 56 54 55 58 59 60 63 64 63 62 60 58 57 58 59 58 55 53 53 53 53 54 54 55 55
46 44 40 36 30 22 13 10 12 13 11 11 14 17 20 20 20 19 19 19 21 20 19 21 27 31 34 37 41 44 44 45 47 49 49 49 49 48 47 49 53 55 55 54 51 50 53 54 53 49 48 49 52 54 57 60 59 56 55 56 58 58 59 61 62 62 63 65 64 63 60 58 57 58 59 59 57 55 55 54 53 54 55 55 55
45 41 37 33 27 21 15 10 10 11 12 12 13 15 17 18 19 19 19 19 21 21 19 20 25 30 33 36 40 43 45 44 44 46 48 48 47 47 47 48 50 52 52 53 52 51 51 52 52 50 49 49 52 54 56 57 56 54 54 57 61 63 63 63 64 63 62 63 63 62 59 56 55 57 60 60 58 57 56 54 54 55 56 56 55
42 38 34 30 26 22 18 15 12 12 13 14 15 18 19 20 21 21 20 20 21 21 21 20 22 27 32 35 37 40 44 45 44 42 44 45 44 44 45 44 45 46 48 50 51 51 51 52 51 50 49 49 50 52 53 54 54 54 56 59 63 65 65 66 66 64 62 60 59 59 57 56 57 59 60 59 58 57 56 55 55 56 57 56 55
39 34 31 29 26 23 21 19 17 16 16 16 19 22 23 23 24 23 22 21 21 22 22 21 21 24 29 33 36 37 41 44 44 43 43 44 44 44 44 44 44 45 46 48 50 50 50 50 49 48 48 49 50 52 53 53 54 55 57 60 63 64 65 65 65 64 61 59 57 58 58 58 59 60 60 59 59 58 57 56 55 55 55 55 55
37 33 30 29 27 24 22 21 20 19 19 20 21 23 23 23 24 24 23 22 21 21 22 21 20 21 25 30 34 37 40 43 44 43 41 40 42 44 44 44 44 44 45 48 50 49 48 48 48 49 49 49 50 51 53 54 54 55 57 60 62 63 63 64 64 64 62 60 58 58 59 59 59 59 60 61 60 59 58 57 55 54 55 55 55
38 34 32 30 29 26 24 23 21 20 20 21 21 22 22 21 22 23 23 22 21 21 22 21 21 21 23 27 31 34 37 39 40 41 40 37 35 37 40 42 41 41 44 48 49 49 48 47 48 48 48 48 49 50 52 54 55 56 57 59 61 63 63 64 65 64 63 61 59 59 60 59 59 59 61 62 61 60 59 58 57 57 57 56 56
38 35 33 31 30 28 26 24 22 21 21 21 21 22 22 21 21 21 21 21 20 21 21 21 20 21 23 26 27 29 32 33 32 32 34 34 32 30 32 36 39 41 43 44 46 49 49 48 47 47 46 47 49 51 52 54 56 58 58 59 60 63 65 66 66 64 62 60 60 60 60 60 59 60 62 64 63 62 61 59 59 59 58 56 56
37 35 33 31 29 27 26 25 22 21 20 20 20 21 21 21 21 19 18 17 18 19 19 19 19 20 23 25 25 26 28 29 27 25 25 27 28 28 29 32 37 41 43 43 44 47 49 48 48 47 47 49 51 52 54 55 56 57 57 58 61 63 65 66 66 64 62 62 62 62 61 61 60 61 63 64 65 64 64 63 62 61 59 57 56
35 34 34 32 30 28 27 26 24 22 21 20 20 19 19 19 19 19 17 15 15 15 17 18 17 18 21 24 25 25 25 25 23 22 22 22 25 27 29 31 35 41 45 46 48 49 49 49 49 49 51 53 54 54 54 55 55 55 56 58 61 63 65 65 65 64 64 64 64 63 63 62 61 61 63 65 65 66 66 65 64 62 60 58 57
35 33 33 32 31 30 29 27 26 24 21 20 19 18 17 16 16 17 17 16 15 14 14 16 16 18 20 23 24 25 24 24 23 22 22 23 25 27 28 31 35 40 44 46 49 50 51 51 51 51 52 54 54 54 54 54 55 56 57 58 59 60 62 63 63 64 63 63 62 63 63 62 60 61 64 66 66 65 65 65 64 64 63 61 59
36 34 33 32 31 30 29 27 26 24 22 20 18 17 16 14 12 11 11 11 12 11 12 15 16 17 19 20 22 23 24 24 24 23 23 23 23 24 28 33 38 43 45 46 47 48 50 51 50 49 49 50 51 53 53 54 55 56 57 57 57 58 60 62 62 62 62 62 62 63 62 61 60 62 64 66 66 65 64 64 64 64 64 63 61
38 38 37 36 34 32 30 28 26 24 22 20 17 15 13 11 10 9 8 6 4 2 5 8 11 12 14 16 19 22 23 23 23 23 23 23 22 25 31 37 40 43 45 46 46 46 47 48 49 48 48 48 49 50 51 52 54 54 54 55 56 57 59 61 61 62 62 62 62 62 61 61 61 62 64 65 65 64 63 63 62 63 63 62 60
39 39 39 38 36 33 32 30 27 25 22 20 18 17 16 15 15 15 15 16 15 13 11 9 7 7 7 9 12 15 18 20 21 21 21 21 22 25 30 35 38 41 42 44 45 45 45 45 46 47 48 49 50 50 51 51 52 53 53 54 56 58 60 61 61 63 63 63 63 62 61 61 61 62 63 63 62 60 59 59 60 61 61 60 58
38 37 37 36 36 35 34 33 30 28 26 25 25 24 24 23 23 22 23 22 20 18 16 14 11 9 9 7 6 10 13 15 16 17 18 20 23 27 30 32 36 38 40 41 42 42 42 42 42 43 45 47 48 49 50 51 51 52 53 54 55 57 59 59 59 60 62 62 62 61 60 61 61 61 61 60 59 57 56 56 57 58 58 58 58
39 38 37 36 36 37 37 36 34 33 33 32 32 32 32 30 29 29 30 28 26 24 21 19 18 18 16 12 7 8 13 14 15 15 16 18 21 25 27 29 31 32 34 36 38 39 40 40 40 40 40 41 43 44 46 48 49 50 51 52 52 53 55 57 58 58 58 58 57 57 58 60 61 60 59 58 57 56 55 56 57 57 57 57 57
40 40 39 38 38 38 37 38 38 38 39 39 38 38 39 37 36 36 36 35 34 33 29 27 27 27 23 18 10 7 10 14 14 13 13 12 12 14 17 19 20 21 23 26 29 32 35 37 37 37 37 37 38 40 41 43 45 47 49 50 51 51 53 56 57 58 58 57 56 56 58 60 60 59 59 58 57 56 56 57 57 57 56 56 54
41 41 41 41 40 39 38 39 40 41 41 42 42 42 43 42 40 39 39 39 40 39 36 35 35 33 29 24 16 9 12 16 16 13 13 11 9 8 9 11 12 14 16 18 20 23 25 27 28 29 30 31 33 35 36 39 41 43 46 48 50 51 52 54 55 57 57 57 57 57 59 59 60 60 60 58 58 57 57 57 56 55 54 53 52
41 42 42 42 42 41 40 40 40 40 41 42 43 44 44 43 42 42 42 42 41 40 38 37 36 33 30 27 21 15 16 20 19 17 16 14 11 10 9 7 8 9 11 13 15 16 18 20 21 22 23 25 27 29 31 34 37 40 42 44 47 50 51 52 54 55 55 56 56 57 57 57 58 59 58 56 56 56 55 54 53 52 50 49 48
40 41 42 42 42 42 42 41 41 41 41 42 43 43 42 42 42 42 42 42 41 40 38 38 36 34 31 29 24 21 23 25 25 23 22 20 17 15 12 9 7 6 7 9 10 12 13 15 17 18 19 20 22 25 27 30 33 36 37 39 43 46 48 49 50 50 50 51 53 53 53 53 53 53 52 51 51 51 49 48 47 46 45 45 45
38 39 40 41 41 42 42 42 42 42 42 42 43 42 42 43 43 43 42 42 41 40 39 38 37 36 33 31 29 29 29 30 29 28 28 26 23 21 18 15 13 10 7 7 7 7 9 11 12 14 15 17 18 21 24 27 30 32 34 36 38 41 43 44 45 44 44 45 46 47 46 46 45 45 44 44 45 45 44 44 44 45 45 45 45
37 38 39 40 41 41 42 41 41 41 41 42 43 43 43 44 44 44 44 44 42 41 41 41 40 39 38 37 36 35 34 33 32 31 30 28 26 25 22 20 18 15 13 12 10 8 7 8 10 11 13 15 16 18 21 24 26 29 31 33 35 37 38 38 39 39 39 40 41 41 41 40 40 40 41 42 43 44 44 45 45 45 45 46 46
37 38 38 39 39 40 40 40 40 40 41 42 42 42 42 43 43 43 43 43 42 42 42 42 42 42 42 41 40 39 38 37 36 34 32 30 28 27 24 22 21 20 18 16 14 12 10 10 10 10 11 12 13 15 18 20 22 25 26 28 30 31 32 32 33 34 35 37 38 39 39 39 40 41 42 43 43 44 45 45 45 44 44 45 46
37 38 38 38 38 38 38 38 38 39 39 40 40 40 40 40 40 40 40 40 40 40 40 40 41 40 40 40 40 39 38 38 37 36 34 33 31 29 27 25 24 24 22 20 18 16 14 13 11 11 11 10 10 11 13 14 16 18 20 22 23 24 25 26 27 29 30 32 34 35 36 37 38 39 40 40 40 41 41 41 41 41 41 41 41
36 37 37 38 37 37 38 38 37 37 38 38 38 37 37 37 37 37 38 38 37 37 37 38 38 37 37 37 36 36 35 35 34 34 33 33 32 31 30 29 28 27 26 24 23 21 19 18 16 14 13 12 11 10 10 10 10 11 13 14 14 15 17 18 20 22 23 25 27 29 30 31 31 32 33 33 33 33 33 33 34 34 34 34 34
34 35 36 36 37 37 37 37 37 37 37 37 36 36 36 36 36 36 36 36 36 36 36 35 35 35 34 34 33 32 31 31 31 31 30 30 29 28 28 28 27 27 27 26 26 25 24 23 21 19 18 16 14 13 12 12 11 10 9 9 9 8 9 11 12 14 16 18 20 21 22 22 23 23 23 23 24 24 25 25 26 26 26 27 27
32 33 33 34 34 35 35 35 35 36 35 35 36 36 35 36 36 35 35 35 35 35 35 34 34 33 33 32 31 31 30 30 29 29 28 27 26 26 25 25 24 24 24 24 24 24 23 23 22 22 21 20 18 16 15 15 15 14 14 13 12 10 9 9 10 11 12 13 14 15 16 16 17 17 17 17 17 17 18 18 18 19 19 19 20
29 30 31 31 32 32 32 33 33 34 34 34 34 34 34 34 34 34 34 34 34 34 34 33 33 32 31 31 31 30 29 29 28 27 27 26 25 24 24 23 23 22 22 21 21 21 20 19 19 19 19 18 17 17 16 17 17 17 16 15 14 13 12 12 12 12 12 12 11 12 12 12 12 13 13 12 12 12 13 13 13 13 14 15 15
Wind_Direction
303 297 293 291 289 287 284 285 291 293 293 297 302 308 310 308 306 296 282 271 259 260 267 244 224 219 222 220 219 219 217 218 217 211 211 212 210 209 206 204 204 205 204 204 205 207 208 209 212 214 214 216 217 217 218 217 217 219 218 218 220 218 218 218 215 213 211 210 212 213 210 209 207 205 204 204 206 208 208 205 203 203 203 202 201
302 301 295 290 286 286 283 281 285 290 291 293 297 303 306 306 306 300 284 273 263 255 262 253 227 217 221 222 218 218 217 217 217 212 211 213 211 209 208 207 206 206 205 204 206 207 208 208 210 212 214 215 215 215 216 217 217 218 219 219 219 217 213 212 213 214 211 208 207 208 209 209 207 207 207 207 208 208 206 204 202 202 202 201 201
294 298 298 293 287 285 284 280 280 285 287 289 293 297 301 303 304 302 290 277 267 253 253 262 235 217 218 221 217 217 218 216 216 214 212 211 210 208 209 209 208 207 205 205 207 207 208 208 209 211 213 214 215 214 214 216 217 217 217 216 216 214 211 210 211 213 213 210 208 207 207 208 208 208 208 208 208 207 205 204 203 203 204 204 204
294 295 299 298 294 289 286 284 281 281 283 285 289 294 297 300 301 303 297 283 272 257 247 262 250 222 214 217 216 215 218 217 216 216 213 210 209 209 209 209 210 209 207 208 209 208 208 208 208 211 213 214 215 215 213 213 215 216 214 213 214 212 210 211 212 213 214 213 211 208 207 207 207 208 208 205 204 204 204 204 204 204 206 207 207
305 298 296 297 299 296 291 289 285 280 281 282 286 290 292 296 299 302 302 289 279 267 249 253 263 229 214 214 216 215 218 218 216 215 213 210 211 212 211 209 209 210 210 212 212 211 210 208 207 209 211 212 213 213 211 210 211 212 211 211 213 212 210 210 212 214 215 215 213 208 206 206 206 205 205 203 200 200 202 205 206 206 206 208 210
318 310 301 299 300 300 296 293 290 284 281 281 284 287 288 292 296 300 305 295 283 276 255 249 264 239 217 213 215 215 217 218 216 215 214 211 210 211 211 210 210 210 211 213 215 214 212 209 208 208 209 208 208 208 207 207 207 208 209 210 212 213 210 209 211 212 214 216 215 210 205 206 207 203 202 203 202 200 200 202 206 208 208 209 209
316 314 310 305 302 300 295 294 294 290 285 283 283 285 286 289 293 297 304 300 287 281 263 248 256 247 221 213 214 215 216 217 216 216 215 210 207 207 208 210 212 212 212 214 216 215 212 210 210 210 209 206 205 204 205 206 206 205 207 208 210 210 209 207 208 210 211 212 213 212 210 208 206 203 201 202 203 204 203 202 203 205 208 210 209
311 310 311 310 306 301 293 287 288 287 288 287 283 283 286 287 290 294 299 300 291 286 273 251 250 251 225 212 212 216 216 216 216 215 214 212 208 207 207 208 211 213 214 214 215 213 211 211 213 212 210 207 205 204 204 205 206 205 205 207 207 207 205 204 205 207 209 209 209 211 212 209 205 204 201 199 201 205 207 207 206 204 205 207 209
308 306 308 309 308 306 299 287 279 276 280 286 284 283 287 285 288 292 295 298 295 289 282 259 248 251 229 212 211 214 215 216 216 214 214 213 211 209 208 209 211 213 214 214 214 214 214 215 217 216 212 207 206 207 207 208 208 205 205 205 204 204 202 202 204 205 206 208 209 209 209 207 205 204 202 203 206 207 206 207 209 209 206 206 206
305 303 303 304 304 307 306 297 285 275 272 277 278 277 283 282 284 290 292 297 297 292 291 270 248 247 232 213 210 212 213 215 216 216 216 215 213 210 209 210 212 213 213 213 213 215 216 218 220 219 216 211 209 208 210 211 210 208 207 205 203 202 200 200 203 205 206 207 208 208 207 207 208 209 210 211 211 209 206 205 206 208 208 207 207
302 301 299 299 298 302 305 302 294 282 273 272 270 267 273 277 279 286 289 294 298 296 298 281 252 244 230 213 209 211 212 214 215 215 216 217 216 213 211 212 214 214 213 212 214 215 215 217 220 220 218 216 214 212 211 211 211 210 209 207 206 204 203 201 201 203 206 207 208 210 210 210 212 213 214 214 212 210 209 206 205 205 205 206 207
299 297 296 296 296 298 300 298 296 290 278 273 268 264 268 271 274 281 285 292 299 298 299 287 257 242 226 211 208 210 212 213 215 214 214 216 217 217 216 216 218 218 215 214 214 215 214 214 217 219 219 218 217 215 212 211 212 211 210 210 209 208 208 207 205 204 205 207 208 210 211 213 214 214 214 213 213 212 211 209 208 208 207 208 209
298 295 294 295 297 298 296 293 295 293 285 277 270 264 264 266 270 276 280 290 297 296 298 289 259 240 225 209 204 208 210 212 215 214 213 213 214 217 219 219 220 220 219 217 216 215 215 214 215 217 218 216 216 215 214 212 212 212 212 212 212 212 213 213 212 211 210 209 209 210 211 213 215 216 215 214 214 213 210 209 211 212 210 210 212
299 296 295 295 298 300 296 293 295 293 288 283 274 265 262 263 268 272 276 287 293 292 296 288 256 236 223 209 204 208 211 213 214 214 214 213 213 215 219 221 222 222 223 222 218 218 219 218 218 219 218 215 214 215 214 213 212 212 212 214 214 215 215 216 217 218 218 217 216 216 216 215 216 218 218 216 214 214 212 210 211 213 212 212 213
302 299 296 295 297 301 301 298 295 290 287 284 276 267 262 261 265 268 272 284 288 288 295 284 251 233 220 207 205 209 210 212 213 214 215 217 216 216 217 220 223 224 226 225 221 220 221 220 218 218 217 215 213 214 215 215 215 213 212 214 216 217 218 219 220 221 223 224 225 226 224 221 220 221 221 219 217 216 216 215 213 212 211 211 212
304 303 300 295 293 296 299 298 293 287 284 280 273 267 262 259 263 267 270 279 283 286 291 274 244 234 219 205 203 209 210 210 213 213 213 215 216 217 217 219 223 224 226 226 224 221 221 219 216 215 216 216 214 213 215 216 215 215 214 215 217 218 220 222 223 224 225 227 229 232 231 228 225 225 223 221 218 217 217 216 213 211 211 210 212
306 305 303 299 294 293 294 295 291 286 283 278 272 267 261 258 260 263 267 275 279 284 285 261 235 234 223 206 202 207 210 212 213 213 212 212 214 217 219 220 222 223 223 225 225 223 221 219 217 215 216 218 217 214 214 214 215 215 216 216 217 218 221 222 223 224 226 228 231 233 234 233 232 232 230 225 220 218 216 214 213 213 213 211 212
310 308 308 306 300 293 291 292 290 286 280 275 270 267 263 257 255 257 265 272 277 284 280 251 230 232 225 212 206 208 211 213 213 211 211 212 214 218 220 220 221 222 223 224 225 225 223 222 221 219 217 218 217 215 214 214 215 215 215 216 217 217 219 220 220 220 222 225 228 230 232 233 235 236 234 228 224 222 219 218 217 217 215 214 213
314 314 314 314 307 297 292 291 289 284 275 268 265 267 268 262 258 260 265 270 275 282 273 241 227 228 224 216 211 211 212 213 212 210 209 211 214 218 220 221 220 220 222 223 224 225 224 225 225 223 221 219 217 216 215 215 216 216 215 216 217 217 217 218 219 219 219 221 223 226 228 230 233 234 232 228 226 225 225 225 224 222 219 218 217
321 321 320 318 312 303 297 292 288 283 271 260 260 269 271 263 258 261 263 266 274 280 264 235 226 224 221 217 216 215 216 215 213 211 210 212 216 219 220 222 222 220 221 223 224 224 224 224 225 225 224 221 218 218 218 217 216 217 216 216 215 215 216 217 219 219 219 219 221 223 224 226 229 231 229 227 226 226 226 226 227 227 224 221 219
326 326 324 321 316 310 305 300 294 285 270 260 261 267 265 257 255 259 262 264 272 276 257 235 228 223 219 219 219 218 217 216 214 213 213 215 218 221 222 223 223 222 221 222 225 227 225 224 223 224 224 224 221 219 220 219 218 218 218 217 216 215 216 218 218 218 219 220 220 221 223 224 226 227 227 226 225 226 226 225 226 228 227 225 224
329 328 327 325 321 318 316 313 304 284 263 257 263 263 254 249 252 258 261 262 270 274 254 237 233 225 219 219 219 218 217 216 215 215 216 217 218 221 224 225 224 223 222 223 226 228 227 226 225 223 223 225 224 222 222 222 221 220 220 219 217 216 218 220 219 216 217 219 220 220 221 223 225 225 225 225 225 225 226 226 226 226 225 227 229
331 330 331 330 327 325 323 322 311 282 252 251 257 253 247 249 255 262 262 261 268 273 255 237 233 228 222 220 219 218 218 219 219 218 218 218 219 221 225 226 224 222 223 225 227 228 227 227 227 225 224 224 225 225 225 225 224 224 224 221 218 216 217 219 217 215 215 218 220 220 221 223 225 225 224 223 222 222 223 225 225 224 223 224 227
334 334 335 336 333 329 324 321 311 287 258 258 263 257 254 259 264 267 265 262 267 272 261 242 232 227 225 222 218 215 216 218 218 217 217 218 220 222 224 225 224 222 223 226 228 228 227 226 227 227 226 225 224 225 226 228 227 227 228 225 222 220 218 217 216 215 215 215 217 219 221 223 226 226 224 222 220 221 222 223 223 223 222 223 225
337 337 339 341 337 327 317 311 304 289 269 263 266 263 263 267 268 268 267 265 267 270 264 247 235 228 225 223 220 218 217 217 216 215 216 217 219 221 223 224 225 225 225 227 228 228 229 229 229 229 227 226 224 223 225 228 229 229 228 226 223 221 219 218 217 217 216 216 217 219 221 224 226 227 224 222 221 222 222 221 221 221 221 221 222
340 340 342 344 339 326 309 297 296 290 273 260 261 263 266 269 269 268 269 267 267 269 265 250 237 230 226 223 221 219 216 214 216 217 216 216 218 220 222 224 225 225 226 228 228 227 227 229 231 230 228 226 224 223 224 227 229 229 228 226 223 220 218 217 217 216 217 218 218 220 222 224 226 226 224 223 223 223 222 222 221 220 220 219 219
344 344 345 345 342 332 315 300 294 288 271 261 263 267 270 273 272 269 267 265 264 265 264 253 239 231 227 223 221 218 213 210 212 215 215 213 214 216 219 222 224 224 225 226 227 226 226 228 230 230 229 226 226 226 227 227 227 227 225 224 223 222 220 220 219 218 219 220 221 223 223 222 223 224 223 223 223 223 223 224 223 222 220 218 217
351 351 350 348 346 340 329 318 312 302 288 279 278 278 278 277 274 268 262 259 259 259 259 255 244 234 229 225 222 220 217 212 211 213 214 212 212 214 216 217 218 219 220 223 225 225 225 226 226 226 226 225 224 224 224 224 224 224 222 222 221 220 219 220 221 220 219 221 223 225 223 221 222 223 223 223 223 223 223 224 224 224 222 219 217
356 358 359 356 351 345 338 333 327 318 309 301 295 291 287 281 277 271 262 255 254 256 256 255 250 240 233 228 225 223 222 219 216 216 217 218 217 218 217 215 214 215 218 220 221 220 220 220 220 219 220 220 220 219 219 219 219 220 220 219 218 217 217 219 220 219 219 219 220 221 222 221 222 223 223 222 222 222 223 223 224 224 223 220 218
356 0 4 3 360 356 350 345 338 330 323 317 310 302 294 284 278 274 268 261 256 255 255 257 255 246 236 231 230 230 230 229 225 221 221 222 224 225 222 219 215 214 215 218 218 218 217 216 217 218 219 219 219 219 219 219 217 217 217 215 215 216 217 219 220 219 219 219 220 222 222 222 223 223 222 220 220 221 221 222 224 224 222 220 219
356 359 3 4 4 2 357 352 346 338 331 327 323 317 307 295 285 277 271 266 260 255 252 252 252 249 241 234 232 234 234 234 232 230 226 224 225 228 229 225 220 216 214 215 216 218 218 218 219 220 221 222 222 222 221 219 218 217 217 216 216 217 217 218 219 218 218 219 221 223 223 224 224 224 222 219 218 219 219 220 222 223 222 221 221
359 359 1 1 2 1 356 353 349 343 336 332 330 327 321 311 301 292 282 273 264 257 251 245 243 243 242 237 233 232 233 232 232 233 233 229 225 226 229 228 224 219 216 215 215 218 220 221 222 222 221 222 222 222 219 217 216 216 216 216 216 216 217 218 219 219 220 221 222 223 223 223 224 224 222 218 217 217 218 218 220 222 222 222 222
4 3 3 2 2 1 358 354 352 349 346 341 335 331 328 323 315 307 299 289 278 264 252 244 240 240 240 236 231 231 234 237 234 232 232 230 227 225 226 228 225 220 217 215 216 217 218 219 220 220 220 220 220 219 217 217 217 218 219 218 217 217 217 219 220 220 220 221 223 223 223 223 224 223 221 218 217 218 218 219 220 222 222 223 223
10 10 9 7 6 5 3 0 357 353 352 350 345 340 336 332 326 318 309 302 297 283 259 244 240 240 239 236 231 230 232 233 231 227 225 224 222 221 223 224 222 220 219 220 220 219 217 216 216 217 217 218 218 218 218 218 218 218 218 217 216 215 216 216 216 217 218 219 221 223 224 224 224 223 221 218 217 218 219 220 221 222 223 224 224
13 14 14 15 15 13 12 9 5 1 359 0 1 357 349 344 347 346 330 312 305 292 262 243 238 236 235 233 231 230 231 231 230 228 225 220 216 215 219 220 217 215 217 221 223 222 220 219 217 217 217 217 218 219 219 218 217 216 215 213 212 212 213 214 215 216 217 218 220 221 222 223 223 223 221 219 218 218 219 220 222 224 225 226 227
16 18 18 20 21 22 23 21 19 18 18 18 21 23 19 19 31 45 54 62 67 111 192 209 220 225 228 231 233 234 234 235 235 233 230 225 218 215 217 218 216 214 215 218 221 224 224 224 223 223 222 221 221 221 221 221 219 218 217 215 214 214 215 216 216 216 217 217 218 219 220 221 222 220 219 219 221 222 222 223 224 226 227 228 229
20 22 23 23 24 28 33 34 34 36 38 40 43 49 54 59 65 72 80 84 87 94 105 124 156 182 193 209 223 230 234 237 239 238 236 234 228 223 222 221 218 217 216 218 220 222 223 224 225 225 226 226 226 226 226 225 224 222 220 219 218 218 218 218 218 218 217 216 216 217 218 219 220 220 219 219 221 222 223 225 226 227 228 229 229
27 29 31 29 28 32 38 42 45 47 50 55 59 63 67 71 75 78 80 79 80 81 82 86 94 96 93 108 164 199 208 212 214 216 218 220 219 220 221 222 222 220 219 219 220 220 220 222 223 224 225 226 227 227 228 228 226 224 222 220 219 219 218 216 214 215 215 213 213 215 216 217 219 219 219 220 220 221 222 223 225 226 227 228 228
33 35 37 37 37 38 41 45 49 53 55 59 63 66 68 70 72 74 75 74 75 76 76 78 81 77 73 79 111 172 181 171 164 170 180 190 198 204 209 213 216 218 219 220 220 221 221 222 224 225 226 226 226 226 226 225 223 221 219 217 215 213 214 213 211 210 210 210 210 211 213 215 217 219 219 220 220 221 221 222 224 226 228 229 231
38 39 40 42 43 45 47 49 52 56 58 60 62 64 65 66 67 69 69 69 70 71 74 77 77 72 70 72 86 137 151 133 121 127 139 150 168 185 194 199 201 205 209 213 216 218 219 221 223 225 226 227 227 226 224 222 221 219 217 216 215 213 214 214 212 210 210 210 210 211 212 214 216 217 218 219 220 220 221 223 224 226 228 231 233
42 44 45 46 48 49 52 54 56 58 60 62 63 64 64 65 65 67 67 68 68 68 70 74 75 73 72 72 76 104 122 110 101 102 104 106 119 140 156 171 181 188 194 200 204 209 214 217 219 221 223 224 225 225 223 221 220 218 217 217 216 216 216 216 214 212 211 210 211 213 215 215 215 216 217 218 219 220 221 223 225 227 228 230 231
44 46 48 50 50 51 53 56 59 61 61 62 63 64 64 64 64 65 66 67 67 68 68 70 72 73 73 72 74 86 96 92 90 90 87 85 89 98 108 127 151 169 183 190 195 202 209 214 216 219 220 221 222 222 221 220 219 219 218 216 215 215 215 215 214 213 212 211 213 216 218 217 216 217 217 218 220 221 222 224 226 228 229 230 232
47 50 51 53 54 55 56 57 58 60 62 64 65 65 65 65 66 66 67 67 67 68 69 70 70 71 72 73 76 80 82 81 81 80 79 79 81 84 87 93 106 129 165 182 189 198 208 214 218 222 224 224 223 222 221 220 220 220 219 218 217 217 217 216 215 214 213 213 214 217 219 219 218 219 220 221 223 225 227 228 231 233 234 236 237
51 53 55 56 57 58 59 59 59 61 64 66 67 67 68 68 68 68 68 68 69 69 70 70 71 71 71 72 73 74 73 73 73 73 72 72 73 75 78 83 90 101 121 140 156 179 198 205 208 213 216 217 218 218 218 218 218 218 219 218 218 218 219 218 218 218 219 218 218 220 221 221 222 223 223 224 226 228 230 231 233 234 235 236 236
52 55 57 57 58 59 60 61 62 63 64 64 65 66 67 69 70 71 71 71 71 72 72 71 71 70 70 70 70 70 70 71 71 70 69 69 69 69 70 73 78 83 91 101 110 126 150 166 174 182 189 195 199 202 206 208 210 212 214 214 215 215 216 215 215 217 218 219 220 220 221 220 220 221 222 223 224 226 228 230 231 232 232 232 232
53 55 57 58 59 60 61 61 62 63 63 64 64 64 65 66 68 69 70 71 72 72 72 72 72 71 71 71 70 70 71 71 71 70 69 68 68 67 66 66 68 69 72 79 88 96 105 118 132 144 155 166 176 184 190 195 199 202 204 207 210 213 215 215 215 215 215 216 218 218 218 218 218 219 220 221 222 224 226 227 228 228 228 228 228
54 56 57 59 60 61 62 63 63 63 64 64 65 65 65 65 65 66 67 68 69 69 69 70 70 70 70 70 70 71 71 71 72 72 71 70 70 68 67 68 68 67 67 69 73 77 81 86 93 103 114 125 141 157 169 178 187 193 197 200 205 210 213 215 215 215 216 217 219 220 220 220 220 220 221 221 222 222 224 225 225 226 227 227 228
53 56 57 58 60 61 61 63 63 64 64 65 65 65 66 66 66 66 66 66 66 66 67 67 67 68 68 68 68 69 70 71 72 73 73 73 73 72 72 72 72 72 72 72 72 73 73 74 75 80 86 92 103 118 130 141 156 173 183 190 197 205 211 215 217 218 218 219 220 221 222 222 222 222 223 224 224 225 226 226 227 229 230 232 234
51 54 55 56 58 59 60 61 62 63 65 65 66 66 66 65 65 65 65 66 66 66 66 66 66 66 67 67 67 68 69 70 71 72 72 72 73 74 74 75 76 77 77 77 77 77 77 76 76 77 78 79 83 91 101 109 118 128 139 147 159 177 192 201 205 208 210 212 213 214 215 215 216 218 220 222 222 224 225 226 227 229 231 233 235
49 51 53 55 56 57 58 59 60 61 62 64 64 65 66 66 66 65 65 65 65 65 66 66 66 66 67 67 67 67 67 68 67 68 69 69 70 71 72 73 75 76 77 78 80 80 81 81 81 81 80 80 81 84 89 95 99 102 104 107 111 118 131 145 156 164 172 179 185 188 191 194 196 197 200 203 206 209 212 215 218 221 223 226 229
48 49 51 52 54 55 55 56 56 56 57 58 59 60 61 62 63 64 64 64 64 64 64 65 65 65 65 66 66 67 67 67 67 68 68 68 67 68 68 68 70 71 72 74 76 78 80 81 82 83 84 85 86 88 91 93 95 97 98 101 104 106 111 118 124 129 135 141 147 152 158 164 168 172 177 182 187 192 198 204 209 214 219 223 227
Height
1361 1358 1355 1352 1349 1346 1344 1342 1341 1340 1339 1338 1336 1334 1333 1331 1329 1328 1326 1326 1327 1328 1327 1325 1322 1324 1329 1333 1336 1340 1344 1349 1354 1358 1363 1368 1374 1379 1383 1388 1393 1398 1403 1407 1411 1414 1418 1422 1426 1430 1434 1437 1441 1446 1450 1453 1456 1459 1462 1464 1466 1468 1471 1475 1479 1481 1485 1489 1493 1497 1501 1504 1506 1509 1511 1513 1515 1518 1520 1522 1524 1526 1528 1530 1532
1354 1352 1349 1347 1344 1341 1338 1337 1336 1334 1333 1332 1331 1329 1327 1325 1323 1322 1321 1320 1321 1322 1321 1321 1319 1319 1323 1327 1329 1333 1338 1342 1347 1352 1357 1362 1368 1373 1378 1382 1388 1393 1397 1402 1405 1409 1413 1417 1421 1425 1428 1432 1436 1440 1443 1447 1451 1454 1456 1459 1462 1464 1467 1471 1474 1477 1481 1485 1489 1494 1498 1500 1503 1506 1508 1511 1513 1515 1518 1520 1522 1524 1526 1528 1530
1347 1346 1343 1340 1338 1336 1333 1331 1330 1329 1328 1326 1325 1324 1322 1319 1318 1316 1315 1314 1314 1315 1315 1315 1315 1314 1317 1321 1323 1327 1332 1336 1341 1347 1351 1356 1362 1367 1372 1377 1382 1387 1391 1396 1400 1404 1407 1411 1415 1419 1423 1427 1431 1435 1438 1442 1445 1448 1451 1454 1457 1460 1464 1467 1470 1473 1477 1481 1485 1489 1492 1496 1499 1502 1505 1508 1511 1514 1516 1518 1520 1523 1525 1526 1528
1340 1339 1337 1334 1331 1330 1327 1325 1324 1323 1322 1321 1320 1319 1317 1315 1313 1311 1310 1309 1308 1308 1308 1309 1310 1310 1311 1315 1318 1321 1325 1330 1335 1341 1347 1351 1357 1361 1366 1372 1377 1382 1385 1389 1394 1398 1401 1405 1409 1413 1418 1422 1426 1430 1433 1437 1440 1443 1447 1450 1454 1457 1460 1464 1467 1470 1474 1478 1482 1485 1488 1492 1495 1499 1502 1505 1509 1512 1514 1516 1519 1521 1523 1525 1527
1333 1332 1330 1327 1325 1323 1321 1320 1318 1317 1316 1315 1315 1314 1312 1310 1308 1306 1304 1302 1301 1302 1303 1303 1304 1305 1305 1309 1313 1316 1320 1324 1328 1335 1341 1347 1352 1357 1361 1367 1372 1376 1380 1384 1388 1392 1395 1398 1403 1407 1412 1416 1420 1424 1427 1431 1435 1438 1442 1446 1450 1454 1457 1460 1463 1467 1471 1475 1478 1482 1485 1488 1492 1495 1499 1502 1505 1508 1511 1514 1516 1518 1521 1523 1525
1327 1325 1323 1321 1319 1317 1316 1314 1312 1311 1310 1309 1309 1309 1307 1305 1303 1301 1298 1296 1295 1296 1297 1298 1299 1300 1300 1302 1307 1311 1315 1319 1323 1329 1336 1342 1347 1352 1357 1362 1367 1371 1375 1378 1383 1387 1390 1394 1398 1401 1404 1409 1413 1417 1422 1426 1429 1433 1437 1442 1446 1450 1453 1456 1460 1464 1468 1471 1474 1478 1481 1484 1488 1492 1495 1498 1501 1503 1507 1510 1513 1516 1518 1520 1522
1324 1321 1318 1315 1312 1311 1310 1309 1307 1306 1305 1304 1303 1303 1302 1299 1298 1296 1293 1292 1291 1291 1291 1292 1293 1294 1294 1296 1301 1306 1310 1314 1318 1323 1330 1336 1341 1346 1351 1356 1361 1366 1370 1373 1377 1382 1386 1390 1393 1396 1398 1402 1407 1411 1416 1420 1424 1428 1433 1437 1442 1445 1448 1452 1455 1459 1464 1468 1471 1474 1477 1481 1485 1488 1491 1495 1499 1501 1503 1505 1508 1511 1514 1516 1518
1320 1317 1313 1310 1307 1305 1304 1303 1301 1300 1299 1298 1297 1295 1294 1293 1291 1290 1288 1287 1287 1287 1286 1286 1287 1289 1290 1290 1294 1300 1304 1308 1313 1318 1324 1330 1335 1340 1345 1350 1356 1361 1364 1368 1372 1377 1382 1386 1390 1392 1395 1398 1402 1406 1410 1414 1419 1423 1428 1433 1437 1440 1444 1447 1450 1454 1458 1463 1467 1470 1474 1477 1481 1484 1488 1491 1494 1496 1499 1502 1504 1507 1509 1512 1515
1316 1313 1309 1306 1303 1300 1299 1297 1295 1294 1292 1292 1291 1289 1287 1285 1284 1284 1283 1283 1282 1281 1281 1280 1281 1283 1285 1285 1288 1294 1299 1303 1307 1312 1318 1324 1330 1335 1340 1345 1350 1354 1359 1363 1367 1372 1377 1381 1385 1389 1393 1397 1400 1403 1407 1410 1413 1417 1422 1426 1431 1436 1439 1442 1445 1449 1453 1458 1462 1466 1469 1472 1475 1478 1482 1484 1487 1490 1494 1498 1502 1505 1507 1510 1512
1313 1309 1306 1302 1299 1295 1292 1290 1289 1287 1285 1285 1284 1282 1280 1279 1278 1278 1278 1278 1277 1276 1274 1275 1276 1277 1279 1280 1283 1288 1293 1297 1302 1307 1313 1319 1326 1331 1336 1340 1345 1348 1353 1359 1363 1367 1371 1376 1381 1386 1391 1395 1398 1401 1405 1408 1410 1414 1417 1420 1424 1429 1433 1436 1440 1444 1448 1452 1456 1459 1463 1467 1470 1473 1476 1479 1483 1486 1490 1493 1496 1501 1505 1507 1510
1309 1306 1302 1298 1295 1292 1287 1284 1282 1280 1278 1277 1276 1276 1276 1274 1274 1273 1273 1273 1272 1270 1268 1268 1270 1272 1275 1275 1277 1282 1286 1291 1297 1303 1308 1314 1321 1326 1331 1336 1341 1344 1348 1354 1358 1362 1366 1372 1378 1383 1387 1391 1395 1398 1402 1405 1408 1412 1415 1417 1420 1423 1426 1430 1434 1439 1443 1446 1450 1453 1457 1461 1465 1468 1472 1475 1479 1482 1485 1489 1492 1495 1498 1501 1504
1304 1300 1297 1294 1291 1287 1283 1280 1276 1273 1271 1269 1269 1270 1271 1270 1270 1269 1269 1268 1267 1265 1263 1263 1264 1267 1270 1271 1272 1276 1281 1287 1293 1299 1304 1310 1316 1322 1327 1332 1337 1340 1344 1349 1353 1357 1361 1367 1373 1378 1382 1386 1391 1395 1398 1402 1405 1409 1412 1415 1419 1422 1424 1425 1428 1432 1436 1441 1444 1448 1452 1456 1459 1463 1466 1470 1474 1478 1482 1487 1489 1491 1494 1496 1498
1299 1293 1290 1288 1285 1281 1278 1274 1270 1267 1264 1262 1262 1264 1265 1265 1265 1265 1264 1263 1262 1260 1259 1259 1259 1262 1265 1266 1267 1271 1277 1283 1289 1295 1300 1305 1311 1317 1323 1327 1331 1336 1340 1345 1349 1353 1357 1362 1367 1372 1376 1381 1386 1390 1393 1397 1402 1406 1410 1413 1417 1420 1423 1426 1428 1430 1432 1435 1438 1442 1446 1450 1453 1456 1461 1465 1468 1472 1477 1482 1485 1488 1490 1493 1495
1292 1287 1283 1280 1278 1275 1272 1268 1265 1261 1257 1256 1255 1257 1258 1259 1260 1260 1259 1259 1257 1255 1256 1256 1256 1257 1260 1262 1263 1268 1273 1279 1285 1291 1296 1302 1307 1313 1318 1323 1326 1331 1335 1339 1344 1349 1353 1358 1363 1367 1371 1376 1381 1385 1389 1393 1398 1402 1407 1410 1413 1417 1421 1424 1427 1430 1433 1435 1436 1439 1443 1445 1447 1451 1456 1459 1462 1466 1469 1474 1478 1481 1486 1490 1493
1285 1281 1277 1273 1270 1268 1265 1261 1258 1255 1252 1250 1249 1250 1251 1253 1254 1254 1254 1254 1252 1252 1252 1252 1252 1253 1256 1258 1260 1264 1269 1276 1282 1288 1293 1299 1304 1309 1314 1319 1323 1327 1330 1334 1339 1344 1348 1353 1359 1363 1367 1371 1376 1380 1385 1389 1393 1398 1402 1405 1409 1414 1417 1420 1424 1428 1431 1434 1436 1439 1442 1444 1446 1449 1452 1455 1458 1462 1465 1469 1473 1476 1481 1486 1489
1279 1274 1270 1267 1264 1262 1258 1255 1253 1250 1247 1245 1244 1244 1245 1247 1248 1249 1250 1249 1248 1248 1247 1247 1247 1249 1252 1254 1256 1260 1266 1273 1279 1285 1290 1296 1301 1305 1310 1314 1318 1322 1325 1329 1334 1339 1343 1348 1354 1359 1362 1366 1371 1377 1382 1386 1390 1393 1397 1401 1406 1410 1413 1417 1422 1425 1429 1433 1436 1439 1442 1444 1446 1447 1449 1452 1456 1460 1465 1469 1472 1476 1479 1483 1486
1272 1268 1264 1261 1258 1256 1253 1250 1247 1245 1242 1240 1239 1239 1240 1241 1243 1245 1246 1245 1244 1243 1242 1242 1244 1246 1249 1251 1253 1257 1263 1270 1276 1281 1286 1292 1298 1302 1306 1310 1314 1318 1321 1326 1330 1335 1339 1344 1349 1353 1356 1361 1367 1373 1377 1381 1385 1388 1392 1397 1402 1406 1410 1415 1419 1423 1427 1432 1435 1437 1440 1442 1444 1445 1448 1451 1454 1457 1461 1465 1468 1472 1475 1478 1480
1266 1262 1257 1254 1251 1249 1247 1244 1241 1239 1237 1235 1234 1234 1236 1237 1238 1240 1242 1241 1239 1239 1238 1239 1240 1243 1245 1248 1251 1255 1260 1266 1272 1277 1283 1288 1293 1297 1301 1306 1310 1314 1318 1323 1326 1330 1335 1339 1344 1348 1351 1357 1364 1369 1372 1375 1379 1383 1388 1392 1396 1400 1405 1410 1414 1418 1423 1427 1430 1433 1435 1438 1440 1441 1444 1448 1451 1454 1457 1460 1464 1467 1469 1472 1475
1260 1255 1250 1245 1243 1241 1240 1238 1235 1233 1232 1230 1229 1230 1232 1233 1235 1237 1238 1237 1236 1235 1235 1235 1237 1239 1242 1246 1249 1254 1258 1264 1269 1274 1279 1285 1289 1293 1298 1302 1305 1309 1314 1318 1322 1325 1329 1334 1339 1343 1348 1354 1360 1363 1366 1370 1374 1378 1383 1386 1390 1393 1399 1405 1409 1413 1417 1420 1423 1426 1430 1433 1435 1436 1439 1443 1447 1450 1453 1457 1460 1463 1466 1469 1472
1255 1249 1243 1239 1235 1232 1232 1231 1229 1228 1226 1225 1225 1227 1228 1230 1232 1234 1235 1234 1233 1232 1231 1232 1234 1236 1240 1244 1247 1251 1256 1260 1265 1270 1276 1281 1285 1289 1294 1297 1300 1304 1309 1313 1317 1320 1323 1327 1332 1337 1343 1349 1355 1358 1361 1365 1369 1373 1378 1380 1382 1388 1396 1402 1405 1408 1411 1414 1417 1421 1424 1427 1430 1432 1435 1438 1441 1445 1450 1454 1456 1460 1463 1466 1468
1249 1243 1237 1233 1228 1225 1224 1224 1223 1222 1222 1222 1222 1223 1225 1227 1229 1231 1232 1231 1231 1230 1229 1229 1232 1234 1237 1241 1244 1248 1252 1256 1261 1267 1272 1277 1281 1285 1289 1291 1295 1300 1305 1309 1313 1315 1318 1321 1326 1331 1337 1344 1349 1353 1357 1361 1365 1368 1371 1373 1378 1385 1391 1395 1398 1402 1406 1409 1412 1415 1418 1421 1424 1427 1430 1433 1436 1441 1445 1449 1452 1456 1460 1462 1464
1244 1238 1232 1227 1223 1219 1218 1218 1218 1218 1218 1219 1219 1220 1222 1224 1226 1228 1228 1228 1228 1227 1227 1227 1229 1232 1235 1238 1241 1245 1249 1253 1258 1263 1267 1272 1276 1280 1283 1287 1291 1296 1300 1304 1307 1310 1314 1317 1321 1327 1332 1337 1343 1349 1353 1357 1360 1362 1365 1370 1376 1382 1384 1387 1390 1395 1399 1402 1405 1408 1412 1415 1418 1421 1425 1428 1432 1437 1441 1445 1448 1452 1456 1458 1460
1240 1233 1228 1222 1218 1215 1214 1215 1215 1215 1216 1217 1218 1218 1219 1222 1223 1224 1225 1225 1225 1224 1224 1225 1227 1229 1232 1235 1238 1242 1246 1249 1253 1258 1263 1268 1272 1275 1279 1283 1288 1292 1295 1298 1302 1306 1311 1314 1318 1323 1328 1332 1338 1344 1349 1353 1355 1358 1361 1367 1372 1376 1379 1381 1384 1386 1390 1395 1399 1402 1405 1408 1412 1415 1419 1423 1427 1432 1436 1440 1443 1447 1450 1453 1456
1236 1230 1224 1219 1216 1214 1213 1214 1214 1214 1215 1216 1217 1217 1218 1220 1221 1221 1221 1222 1221 1221 1221 1223 1224 1227 1229 1231 1234 1239 1242 1245 1249 1253 1259 1263 1267 1271 1276 1280 1284 1287 1290 1293 1298 1303 1307 1311 1315 1320 1324 1328 1333 1338 1343 1347 1351 1354 1359 1364 1369 1372 1374 1375 1377 1379 1383 1387 1391 1395 1399 1402 1406 1410 1414 1419 1423 1427 1430 1434 1437 1442 1446 1449 1452
1232 1227 1222 1218 1215 1214 1213 1213 1212 1212 1213 1214 1215 1216 1217 1217 1218 1218 1219 1219 1219 1219 1219 1220 1221 1224 1226 1229 1232 1235 1239 1242 1245 1249 1254 1259 1263 1267 1272 1276 1280 1283 1286 1290 1294 1299 1304 1309 1314 1318 1322 1326 1329 1333 1337 1341 1345 1350 1355 1360 1364 1366 1368 1369 1372 1375 1377 1379 1383 1389 1393 1398 1402 1407 1412 1415 1418 1421 1424 1428 1433 1437 1441 1444 1448
1230 1224 1220 1217 1216 1214 1213 1211 1210 1210 1211 1212 1213 1214 1215 1215 1216 1216 1217 1217 1217 1217 1218 1218 1219 1221 1224 1226 1229 1233 1236 1239 1242 1245 1249 1254 1259 1263 1268 1273 1276 1280 1284 1287 1291 1296 1301 1306 1311 1314 1318 1321 1324 1326 1329 1333 1339 1345 1350 1354 1356 1358 1361 1364 1366 1369 1372 1374 1378 1382 1388 1394 1399 1403 1405 1408 1411 1414 1418 1423 1428 1431 1435 1439 1443
1229 1223 1219 1217 1216 1215 1213 1211 1209 1209 1209 1210 1211 1211 1212 1212 1213 1213 1214 1215 1215 1215 1216 1216 1217 1219 1221 1224 1227 1230 1233 1236 1239 1242 1245 1249 1253 1258 1263 1268 1273 1276 1280 1284 1288 1292 1297 1301 1306 1310 1314 1317 1320 1322 1325 1328 1333 1338 1342 1345 1348 1351 1355 1358 1360 1363 1366 1370 1373 1377 1383 1389 1392 1393 1396 1401 1406 1410 1414 1418 1422 1425 1429 1434 1437
1229 1224 1220 1217 1216 1214 1213 1211 1209 1208 1208 1208 1208 1209 1209 1209 1209 1209 1210 1212 1212 1213 1214 1214 1215 1217 1219 1222 1225 1228 1230 1232 1235 1238 1241 1244 1249 1253 1258 1263 1267 1271 1275 1279 1283 1288 1293 1298 1302 1305 1309 1312 1315 1318 1320 1323 1326 1329 1333 1337 1340 1344 1349 1353 1356 1359 1362 1365 1369 1373 1377 1381 1383 1386 1390 1395 1400 1403 1408 1412 1417 1421 1425 1429 1432
1230 1225 1220 1217 1215 1213 1211 1210 1208 1207 1206 1205 1205 1205 1205 1205 1205 1206 1207 1208 1209 1210 1211 1212 1214 1215 1218 1220 1222 1224 1226 1228 1232 1236 1239 1242 1246 1249 1253 1258 1262 1266 1271 1276 1280 1285 1289 1293 1296 1299 1301 1304 1307 1310 1313 1316 1319 1322 1326 1330 1334 1338 1343 1347 1350 1354 1357 1360 1364 1367 1371 1374 1378 1381 1385 1388 1392 1397 1402 1407 1412 1416 1420 1423 1426
1230 1225 1220 1217 1215 1211 1209 1208 1207 1206 1204 1203 1202 1201 1200 1201 1202 1202 1203 1205 1206 1207 1208 1210 1211 1213 1215 1217 1220 1222 1225 1227 1231 1235 1238 1241 1244 1247 1251 1255 1260 1264 1269 1273 1277 1281 1285 1288 1291 1293 1295 1298 1301 1303 1306 1309 1312 1315 1319 1324 1328 1332 1336 1340 1344 1347 1351 1355 1359 1362 1366 1369 1372 1375 1378 1382 1386 1390 1396 1401 1406 1410 1413 1416 1419
1232 1226 1222 1219 1216 1212 1209 1207 1205 1203 1202 1200 1199 1197 1197 1197 1197 1198 1199 1200 1202 1203 1205 1206 1208 1210 1212 1215 1218 1221 1223 1226 1230 1233 1236 1239 1242 1245 1248 1253 1257 1261 1265 1269 1273 1277 1280 1283 1285 1287 1289 1292 1294 1297 1300 1303 1306 1309 1313 1317 1321 1325 1329 1332 1336 1341 1345 1349 1353 1357 1361 1364 1367 1369 1372 1375 1378 1383 1388 1394 1399 1402 1406 1410 1414
1236 1230 1225 1220 1217 1214 1210 1207 1204 1202 1200 1199 1197 1196 1194 1193 1193 1194 1195 1196 1198 1199 1201 1203 1205 1207 1210 1212 1215 1218 1221 1224 1227 1230 1233 1236 1239 1243 1246 1250 1254 1258 1262 1266 1269 1271 1274 1276 1278 1279 1282 1284 1287 1291 1294 1297 1301 1305 1307 1310 1313 1316 1320 1324 1330 1335 1339 1342 1345 1349 1354 1358 1361 1365 1367 1370 1372 1375 1380 1385 1391 1396 1401 1405 1408
1240 1234 1228 1223 1218 1214 1211 1207 1204 1202 1200 1199 1197 1196 1194 1192 1190 1190 1191 1192 1194 1196 1198 1200 1203 1205 1208 1210 1213 1216 1219 1222 1225 1228 1230 1234 1237 1241 1244 1248 1251 1255 1258 1260 1262 1264 1266 1269 1271 1272 1275 1278 1281 1285 1288 1292 1296 1300 1302 1304 1306 1309 1314 1320 1325 1329 1331 1333 1337 1341 1346 1350 1355 1359 1362 1365 1366 1368 1372 1378 1384 1390 1394 1398 1402
1243 1238 1233 1227 1221 1216 1212 1208 1205 1202 1200 1199 1197 1195 1193 1191 1189 1189 1189 1189 1191 1193 1195 1198 1201 1204 1206 1209 1211 1214 1217 1219 1222 1225 1228 1232 1235 1239 1242 1246 1249 1252 1253 1254 1255 1258 1261 1263 1265 1267 1270 1274 1277 1280 1283 1287 1291 1294 1296 1299 1302 1305 1310 1315 1318 1320 1323 1326 1330 1334 1339 1343 1347 1352 1356 1359 1360 1363 1367 1372 1377 1382 1386 1391 1395
1246 1241 1236 1230 1224 1219 1214 1210 1206 1204 1201 1198 1196 1194 1192 1190 1189 1188 1188 1188 1190 1192 1195 1197 1200 1202 1204 1207 1209 1212 1214 1217 1220 1223 1226 1229 1233 1237 1240 1242 1244 1246 1247 1248 1251 1254 1257 1259 1261 1264 1267 1270 1273 1276 1279 1282 1286 1288 1291 1294 1297 1301 1305 1307 1310 1313 1317 1320 1323 1327 1332 1336 1340 1345 1349 1352 1354 1356 1360 1365 1370 1375 1380 1385 1389
1247 1242 1237 1231 1226 1221 1216 1212 1209 1206 1203 1200 1197 1195 1193 1191 1190 1189 1188 1188 1190 1192 1194 1196 1198 1199 1201 1204 1206 1209 1212 1215 1218 1221 1224 1227 1231 1234 1235 1237 1239 1241 1243 1245 1248 1251 1254 1256 1259 1262 1264 1267 1270 1273 1276 1279 1282 1285 1288 1290 1293 1296 1298 1300 1303 1306 1310 1314 1317 1321 1325 1330 1334 1338 1342 1345 1348 1351 1355 1360 1366 1371 1376 1381 1385
1250 1244 1239 1235 1230 1224 1219 1216 1212 1209 1206 1202 1199 1197 1195 1193 1192 1191 1191 1191 1191 1192 1192 1193 1194 1196 1198 1201 1204 1207 1211 1214 1218 1220 1223 1227 1229 1231 1232 1234 1236 1239 1240 1243 1246 1248 1251 1254 1256 1259 1261 1264 1267 1270 1273 1276 1279 1282 1285 1287 1290 1291 1293 1295 1297 1300 1303 1307 1310 1314 1318 1323 1328 1331 1335 1339 1343 1348 1352 1357 1362 1367 1372 1376 1380
1256 1250 1246 1241 1236 1229 1224 1219 1216 1213 1209 1205 1202 1200 1199 1197 1196 1195 1195 1194 1194 1194 1193 1193 1194 1196 1198 1201 1204 1206 1210 1213 1216 1219 1222 1224 1227 1229 1231 1233 1235 1237 1239 1241 1244 1247 1249 1252 1254 1256 1258 1261 1263 1266 1269 1272 1275 1278 1280 1283 1285 1287 1289 1292 1294 1296 1298 1301 1304 1308 1312 1317 1321 1326 1330 1334 1338 1342 1347 1352 1357 1362 1366 1369 1372
1262 1257 1252 1247 1241 1236 1230 1225 1221 1217 1214 1211 1208 1206 1205 1203 1202 1200 1199 1198 1197 1196 1196 1196 1197 1199 1202 1204 1205 1207 1209 1211 1213 1215 1217 1219 1222 1224 1226 1229 1232 1235 1237 1240 1243 1246 1248 1250 1252 1254 1256 1259 1261 1263 1266 1268 1271 1273 1276 1279 1281 1283 1284 1286 1289 1291 1294 1297 1300 1304 1308 1312 1316 1320 1325 1329 1333 1337 1342 1346 1350 1354 1358 1361 1364
1268 1263 1258 1252 1247 1242 1237 1233 1229 1224 1221 1218 1216 1213 1211 1209 1207 1206 1204 1203 1202 1201 1201 1200 1201 1204 1207 1209 1209 1209 1210 1212 1214 1215 1216 1218 1221 1223 1225 1227 1229 1232 1235 1238 1241 1244 1246 1248 1250 1253 1255 1257 1259 1261 1264 1266 1268 1270 1272 1275 1277 1279 1280 1282 1284 1286 1289 1292 1296 1299 1302 1307 1312 1316 1319 1324 1328 1333 1337 1341 1345 1348 1352 1356 1360
1275 1269 1264 1259 1254 1249 1244 1240 1236 1233 1229 1227 1224 1221 1219 1217 1214 1212 1211 1209 1209 1209 1208 1208 1209 1211 1214 1215 1215 1213 1213 1215 1217 1218 1219 1221 1223 1225 1226 1228 1230 1232 1234 1237 1239 1242 1244 1246 1248 1250 1252 1254 1257 1259 1262 1265 1267 1268 1270 1271 1273 1275 1276 1279 1282 1283 1284 1287 1291 1294 1297 1302 1307 1310 1314 1319 1324 1329 1333 1337 1340 1344 1348 1352 1355
1281 1275 1270 1265 1261 1256 1252 1248 1245 1241 1238 1235 1231 1229 1227 1224 1222 1220 1219 1218 1218 1217 1217 1217 1218 1219 1220 1221 1221 1219 1218 1219 1221 1222 1223 1225 1226 1228 1229 1230 1231 1233 1235 1237 1239 1241 1242 1244 1247 1249 1251 1253 1255 1258 1260 1262 1265 1267 1268 1270 1271 1271 1272 1275 1279 1280 1281 1284 1287 1289 1293 1298 1303 1306 1310 1315 1321 1325 1329 1333 1337 1341 1345 1348 1352
1287 1282 1277 1273 1268 1264 1261 1257 1253 1249 1246 1243 1240 1238 1235 1233 1231 1229 1228 1227 1227 1227 1226 1226 1227 1227 1227 1228 1227 1225 1224 1224 1225 1226 1227 1229 1230 1231 1232 1233 1234 1235 1237 1239 1240 1241 1243 1244 1246 1248 1250 1252 1254 1256 1258 1260 1262 1264 1267 1269 1271 1272 1273 1275 1277 1279 1280 1282 1285 1288 1291 1295 1300 1305 1309 1314 1319 1324 1328 1332 1335 1339 1342 1345 1348
1293 1288 1284 1280 1276 1272 1268 1265 1262 1259 1256 1253 1250 1247 1244 1242 1239 1238 1237 1236 1236 1235 1235 1235 1235 1234 1234 1233 1232 1231 1230 1230 1230 1231 1232 1233 1234 1235 1236 1236 1237 1238 1239 1240 1242 1243 1243 1245 1246 1247 1249 1250 1252 1254 1256 1258 1260 1263 1265 1268 1271 1273 1275 1276 1277 1278 1280 1282 1285 1288 1291 1294 1299 1303 1308 1312 1317 1322 1326 1329 1332 1334 1337 1340 1343
1298 1294 1290 1286 1282 1279 1276 1272 1270 1267 1264 1261 1258 1255 1253 1251 1249 1247 1246 1245 1244 1244 1243 1242 1241 1240 1239 1238 1237 1236 1236 1236 1236 1236 1237 1238 1239 1240 1241 1241 1241 1242 1242 1242 1244 1245 1245 1246 1247 1247 1249 1250 1251 1253 1255 1257 1259 1261 1264 1267 1270 1272 1274 1275 1276 1277 1279 1282 1285 1287 1290 1293 1296 1300 1304 1308 1312 1316 1320 1323 1326 1329 1332 1334 1336
1303 1299 1296 1292 1288 1285 1283 1280 1277 1274 1271 1268 1265 1263 1262 1260 1258 1256 1255 1254 1253 1251 1250 1249 1247 1246 1245 1244 1243 1243 1242 1242 1242 1242 1243 1243 1243 1244 1245 1245 1245 1246 1246 1246 1246 1247 1247 1248 1248 1249 1250 1251 1251 1253 1255 1257 1259 1262 1264 1267 1270 1272 1273 1274 1275 1276 1279 1282 1284 1286 1288 1290 1293 1297 1301 1305 1308 1311 1314 1317 1320 1323 1326 1328 1331
1308 1304 1301 1298 1295 1292 1290 1287 1284 1281 1278 1276 1274 1272 1270 1269 1267 1265 1264 1262 1261 1259 1257 1256 1254 1253 1252 1251 1250 1249 1248 1248 1247 1247 1248 1248 1248 1249 1249 1249 1249 1250 1250 1250 1250 1250 1251 1251 1252 1252 1253 1253 1254 1255 1257 1258 1260 1262 1264 1266 1269 1271 1272 1273 1274 1276 1279 1282 1284 1287 1288 1290 1293 1296 1299 1302 1305 1308 1311 1314 1316 1319 1322 1325 1328
1313 1309 1307 1304 1302 1299 1296 1294 1291 1288 1286 1284 1282 1280 1279 1277 1275 1273 1272 1270 1268 1266 1264 1263 1261 1260 1259 1258 1257 1256 1255 1254 1254 1254 1253 1253 1253 1254 1254 1254 1254 1254 1254 1254 1255 1255 1255 1255 1256 1256 1256 1256 1257 1258 1258 1260 1261 1263 1264 1266 1268 1270 1272 1273 1275 1277 1279 1282 1285 1287 1289 1291 1293 1296 1298 1301 1304 1307 1310 1312 1315 1317 1320 1323 1326
1318 1315 1312 1309 1307 1305 1303 1301 1298 1296 1294 1292 1290 1288 1286 1284 1282 1280 1279 1277 1274 1272 1271 1269 1268 1267 1265 1264 1264 1264 1263 1262 1261 1261 1260 1260 1260 1260 1260 1260 1260 1259 1259 1259 1259 1259 1259 1260 1260 1260 1260 1260 1260 1260 1260 1261 1263 1264 1265 1267 1269 1271 1273 1274 1276 1278 1280 1282 1285 1287 1289 1290 1292 1295 1297 1300 1303 1305 1308 1311 1313 1315 1318 1320 1323
1323 1320 1317 1314 1312 1310 1308 1306 1304 1302 1301 1299 1297 1295 1293 1291 1289 1287 1285 1283 1280 1278 1276 1275 1274 1273 1272 1271 1271 1270 1269 1268 1268 1267 1266 1266 1266 1266 1266 1266 1265 1265 1264 1264 1263 1263 1264 1264 1264 1264 1264 1264 1264 1264 1264 1264 1265 1267 1268 1270 1272 1274 1275 1277 1278 1280 1282 1284 1285 1287 1288 1289 1291 1293 1295 1298 1301 1303 1306 1308 1311 1313 1316 1318 1320
1326 1324 1322 1320 1317 1315 1313 1311 1309 1307 1305 1303 1301 1300 1298 1296 1294 1293 1291 1288 1286 1284 1283 1281 1281 1280 1279 1278 1277 1276 1275 1274 1273 1273 1272 1272 1272 1271 1271 1271 1270 1270 1269 1269 1268 1268 1268 1268 1267 1267 1267 1267 1267 1268 1268 1268 1269 1271 1272 1274 1276 1278 1279 1281 1282 1283 1284 1285 1286 1287 1288 1290 1291 1293 1295 1298 1300 1302 1305 1307 1309 1312 1314 1316 1319